Weather History for Liberia, Costa Rica

Change the Weather History Date:

Wednesday, January 2, 2013

  Actual Average Record
Temperature  
Mean Temperature 83 °F -  
Max Temperature 92 °F 88 °F - ()
Min Temperature 74 °F 73 °F - ()
Cooling Degree Days 18    
Growing Degree Days 33 (Base 50)    
Moisture  
Dew Point 65 °F    
Average Humidity 47    
Maximum Humidity 61    
Minimum Humidity 32    
Precipitation  
Precipitation 0.00 in - - ()
Sea Level Pressure  
Sea Level Pressure 29.79 in    
Wind  
Wind Speed 12 mph ()    
Max Wind Speed 16 mph    
Max Gust Speed -    
Visibility 8.0 miles    
Events      
T = Trace of Precipitation, MM = Missing Value Source: Averaged Metar Reports

Daily Weather History Graph

Daily Weather History Graph

Search for Another Location

Airport:

Trip Planner

Search our weather history database for the weather conditions in past years. The results will help you decide how hot, cold, wet, or windy it might be!

Date:

Astronomy

Jan. 02, 2013 Rise Set
Actual Time 6:00 AM CST 5:32 PM CST
Civil Twilight 5:37 AM CST 5:54 PM CST
Nautical Twilight 5:11 AM CST 6:21 PM CST
Astronomical Twilight 4:45 AM CST 6:47 PM CST
Moon 10:00 PM CST (1/2) 9:39 AM CST (1/2)
Length of Visible Light 12h 17m
Length of Day
11h 31m
Waning Gibbous, 75% of the Moon is Illuminated
Jan 2
Waning Gibbous
Jan 4
Last Quarter
Jan 11
New
Jan 18
First Quarter
Jan 26
Full

Hourly Weather History & Observations

Time (CST) Temp. Heat Index Dew Point Humidity Pressure Visibility Wind Dir Wind Speed Gust Speed Precip Events Conditions
6:00 AM 80 °F - 65 °F 50% 29.80 in 12 mi East 13.8 mph - -   Scattered Clouds
6:00 AM 78.8 °F - 64.4 °F 61% 29.79 in 6.2 mi East 13.8 mph - N/A   Scattered Clouds
7:00 AM 78.8 °F - 64.4 °F 61% 29.82 in - ENE 11.5 mph - N/A   Clear
8:00 AM 80.6 °F 82.7 °F 66.2 °F 61% 29.84 in - ENE 15.0 mph - N/A   Clear
9:00 AM 86 °F - 65 °F 39% 29.86 in 12 mi NE 13.8 mph - -   Clear
9:00 AM 86.0 °F 87.3 °F 64.4 °F 48% 29.85 in - NE 13.8 mph - N/A   Clear
10:00 AM 87.8 °F 89.4 °F 64.4 °F 46% 29.84 in - ENE 15.0 mph - N/A   Clear
11:00 AM 89.6 °F 90.1 °F 62.6 °F 40% 29.81 in 6.2 mi East 15.0 mph - N/A   Scattered Clouds
12:00 PM 90 °F - 64 °F 32% 29.81 in 12 mi NE 16.1 mph - -   Scattered Clouds
12:00 PM 89.6 °F 91.1 °F 64.4 °F 43% 29.79 in 6.2 mi NE 16.1 mph - N/A   Scattered Clouds
1:00 PM 91.4 °F 92.1 °F 62.6 °F 38% 29.77 in 6.2 mi ENE 12.7 mph - N/A   Scattered Clouds
2:00 PM 91.4 °F 92.1 °F 62.6 °F 38% 29.74 in 6.2 mi NE 13.8 mph - N/A   Scattered Clouds
3:00 PM 90 °F - 64 °F 32% 29.75 in 12 mi ENE 12.7 mph - -   Scattered Clouds
3:00 PM 89.6 °F 91.1 °F 64.4 °F 43% 29.73 in 6.2 mi ENE 12.7 mph - N/A   Scattered Clouds
4:00 PM 89.6 °F 91.1 °F 64.4 °F 43% 29.73 in 6.2 mi ENE 13.8 mph - N/A   Scattered Clouds
5:00 PM 86.0 °F 88.2 °F 66.2 °F 51% 29.74 in 6.2 mi ENE 13.8 mph - N/A   Partly Cloudy
6:00 PM 83 °F - 67 °F 49% 29.78 in 12 mi ENE 15.0 mph - -   Scattered Clouds
6:00 PM 82.4 °F 84.6 °F 66.2 °F 58% 29.77 in 6.2 mi ENE 15.0 mph - N/A   Scattered Clouds
7:00 PM 82.4 °F 84.6 °F 66.2 °F 58% 29.81 in 6.2 mi ENE 10.4 mph - N/A   Scattered Clouds
8:00 PM 80.6 °F 82.3 °F 64.4 °F 58% 29.83 in 6.2 mi ENE 11.5 mph - N/A   Mostly Cloudy